EW0805 Weather Reports


time (UTC)temp
C
wind
direction
speed
KPH
gust
KPH
rain 1hr
cm
rain 24hr
cm
rain mn
cm
humidity
%
barometer
mb
20260510161543 12 34 4.8 24.1 0.00 0.00 0.00 59 1015.2
20260510160044 12 19 4.8 19.3 0.00 0.00 0.00 60 1015.5
20260510154535 12 60 6.4 22.5 0.00 0.00 0.00 60 1015.8
20260510153036 12 35 9.7 24.1 0.00 0.00 0.00 60 1016.0
20260510151530 12 62 8.0 20.9 0.00 0.00 0.00 60 1016.0
20260510150038 12 45 9.7 25.7 0.00 0.00 0.00 60 1016.2
20260510144522 12 348 9.7 25.7 0.00 0.00 0.00 60 1016.3
20260510143019 12 42 9.7 22.5 0.00 0.00 0.00 60 1016.4
20260510141522 12 312 6.4 20.9 0.00 0.00 0.00 60 1016.5
20260510140007 12 50 8.0 25.7 0.00 0.00 0.00 60 1016.5
20260510134607 12 19 8.0 24.1 0.00 0.00 0.00 60 1016.7
20260510133056 12 333 8.0 22.5 0.00 0.00 0.00 60 1016.5
20260510131552 12 348 6.4 20.9 0.00 0.00 0.00 60 1016.7
20260510130049 12 5 8.0 24.1 0.00 0.00 0.00 60 1016.9
20260510124554 12 78 11.3 17.7 0.00 0.00 0.00 58 1016.9
20260510123040 12 4 6.4 22.5 0.00 0.00 0.00 58 1017.1
20260510121535 12 54 9.7 20.9 0.00 0.00 0.00 58 1017.2
20260510120031 12 50 11.3 22.5 0.00 0.00 0.00 59 1017.3
20260510114534 13 109 4.8 30.6 0.00 0.00 0.00 60 1017.2
20260510113021 14 33 16.1 27.4 0.00 0.00 0.00 59 1017.4
20260510111517 14 25 14.5 29.0 0.00 0.00 0.00 59 1017.5
20260510110011 15 39 8.0 24.1 0.00 0.00 0.00 59 1017.6
20260510104518 14 37 9.7 33.8 0.00 0.00 0.00 59 1017.7
20260510103003 13 81 11.3 27.4 0.00 0.00 0.00 59 1017.7
20260510101609 13 12 9.7 22.5 0.00 0.00 0.00 58 1017.7
20260510100057 12 35 12.9 25.7 0.00 0.00 0.00 57 1017.6
20260510094552 12 321 12.9 27.4 0.00 0.00 0.00 59 1017.7
20260510093046 12 34 14.5 40.2 0.00 0.00 0.00 58 1017.8
20260510091541 12 52 11.3 32.2 0.00 0.00 0.00 55 1017.9
20260510090036 11 36 9.7 25.7 0.00 0.00 0.00 50 1018.1
20260510084532 11 63 14.5 30.6 0.00 0.00 0.00 46 1018.2
20260510083028 11 21 8.0 22.5 0.00 0.00 0.00 40 1018.3
20260510081534 11 33 11.3 20.9 0.00 0.00 0.00 38 1018.3
20260510080018 11 34 11.3 25.7 0.00 0.00 0.00 30 1018.3
20260510074513 11 59 8.0 27.4 0.00 0.00 0.00 23 1018.3
20260510073009 11 64 3.2 17.7 0.00 0.00 0.00 13 1018.3
20260510071506 11 39 9.7 19.3 0.00 0.00 0.00 8 1018.2
20260510070100 11 50 6.4 17.7 0.00 0.00 0.00 1 1018.2
20260510063016 10 27 3.2 22.5 0.00 0.00 0.00 1 1018.2
20260510061516 10 23 4.8 19.3 0.00 0.00 0.00 1 1018.1
20260510060006 10 341 8.0 17.7 0.00 0.00 0.00 1 1018.0
20260510054615 10 27 3.2 19.3 0.00 0.00 0.00 1 1017.9
20260510053055 10 51 4.8 14.5 0.00 0.00 0.00 1 1018.1
20260510051552 10 358 3.2 16.1 0.00 0.00 0.00 1 1018.1
20260510050052 10 8 1.6 16.1 0.00 0.00 0.00 1 1018.0
20260510044546 10 344 1.6 14.5 0.00 0.00 0.00 1 1018.0
20260510043038 10 62 1.6 12.9 0.00 0.00 0.00 1 1017.9
20260510041540 10 64 3.2 14.5 0.00 0.00 0.00 1 1017.9
20260510040028 10 327 3.2 12.9 0.00 0.00 0.00 1 1018.2
20260510034524 10 4 1.6 17.7 0.00 0.00 0.00 1 1018.3
20260510033020 10 21 3.2 11.3 0.00 0.00 0.00 1 1018.3
20260510031515 10 46 3.2 11.3 0.00 0.00 0.00 1 1018.4
20260510030014 10 52 0.0 11.3 0.00 0.00 0.00 1 1018.4
20260510024507 10 58 0.0 6.4 0.00 0.00 0.00 1 1018.4
20260510023005 10 8 1.6 9.7 0.00 0.00 0.00 1 1018.4
20260510021559 10 17 3.2 9.7 0.00 0.00 0.00 1 1018.4
20260510020054 10 52 3.2 12.9 0.00 0.00 0.00 1 1018.3
20260510014611 11 344 1.6 9.7 0.00 0.00 0.00 4 1018.4
20260510013059 11 5 1.6 8.0 0.00 0.00 0.00 11 1018.5
20260510011544 11 54 1.6 6.4 0.00 0.00 0.00 27 1018.5
20260510010039 10 21 1.6 9.7 0.00 0.00 0.00 39 1018.3
20260510004541 10 348 3.2 9.7 0.00 0.00 0.00 53 1018.4
20260510003032 10 29 3.2 12.9 0.00 0.00 0.00 61 1018.4
20260510001529 11 4 3.2 12.9 0.00 0.00 0.00 62 1018.5
20260510000026 11 29 3.2 14.5 0.00 0.00 0.00 61 1018.4
20260509234523 11 326 4.8 14.5 0.00 0.00 0.00 61 1018.3
20260509233020 11 36 6.4 14.5 0.00 0.00 0.00 60 1018.2
20260509231517 12 37 6.4 14.5 0.00 0.00 0.00 60 1018.2
20260509230015 12 353 3.2 14.5 0.00 0.00 0.00 59 1018.2
20260509224510 12 43 1.6 9.7 0.00 0.00 0.00 58 1018.1
20260509223006 12 11 3.2 8.0 0.00 0.00 0.00 57 1018.0
20260509221501 12 358 1.6 8.0 0.00 0.00 0.00 56 1018.0
20260509220058 12 77 3.2 9.7 0.00 0.00 0.00 56 1018.0
20260509214551 13 50 3.2 9.7 0.00 0.00 0.00 57 1018.1
20260509213048 13 83 1.6 4.8 0.00 0.00 0.00 56 1018.1
20260509211548 14 56 1.6 8.0 0.00 0.00 0.00 55 1017.8
20260509210050 14 61 1.6 9.7 0.00 0.00 0.00 54 1017.6
20260509204537 15 60 1.6 8.0 0.00 0.00 0.00 53 1017.6
20260509203036 15 46 1.6 9.7 0.00 0.00 0.00 52 1017.5
20260509201534 15 74 4.8 16.1 0.00 0.00 0.00 51 1017.4
20260509200032 16 95 3.2 11.3 0.00 0.00 0.00 51 1017.3
20260509194527 16 90 3.2 12.9 0.00 0.00 0.00 50 1017.1
20260509193021 16 55 3.2 11.3 0.00 0.00 0.00 49 1017.0
20260509191518 17 98 1.6 14.5 0.00 0.00 0.00 47 1016.9
20260509190011 17 125 6.4 12.9 0.00 0.00 0.00 46 1016.8
20260509184514 18 100 3.2 16.1 0.00 0.00 0.00 46 1016.8
20260509183003 18 75 4.8 19.3 0.00 0.00 0.00 45 1016.5
20260509181559 19 71 8.0 17.7 0.00 0.00 0.00 45 1016.4
20260509180054 19 51 4.8 16.1 0.00 0.00 0.00 45 1016.3
20260509174550 19 73 4.8 16.1 0.00 0.00 0.00 45 1016.1
20260509173113 20 56 8.0 17.7 0.00 0.00 0.00 44 1016.0
20260509171544 20 56 4.8 16.1 0.00 0.00 0.00 45 1016.0
20260509170040 20 97 8.0 19.3 0.00 0.00 0.00 43 1016.3
20260509164535 20 20 6.4 16.1 0.00 0.00 0.00 42 1016.3
20260509163031 21 29 4.8 22.5 0.00 0.00 0.00 42 1016.2